DMSP 5D-2 F13 DEB

Satellite information

Favourite Embed

Satellite Type and Status

DEBRISIN ORBIT

Key statistics

Satellite DMSP 5D-2 F13 DEB at a glance.

Uptime

11063

Days in orbit

Revolutions

≈ 14.5

Per day

Orbit

SSO

Sun Synchronous Orbit

Inclination

98.6

Latest

Satellite identification and parameters

Extended collection of information and parameters for DMSP 5D-2 F13 DEB.

Object identification

Identified? True

Debris? True

Object name: DMSP 5D-2 F13 DEB

International designator: 1995-015EK

Object number (NORAD): 40576

Object ID (CCSDS): 40576

Country: UNITED STATES OF AMERICA (US)

Current information (Y/N): Y

RCS size: SMALL

Orbital parameters

Period: 99.24 minutes

Inclination: 98.5791 deg

SMA: 7100.445 km

Apoapsis: 742.073 km

Periapsis: 702.546 km

RAAN: 240.095 deg

Eccentricy: 0.0027834

Argument of periapsis: 139.7178 deg

Mean anomaly: 220.6085 deg

Mean motion: 14.51023485 rev/day

Mean motion (dot): 0.00006454 rev/day2

B* drag term: 0.0016336 1/REarth

Two-line elements (TLE)

Creation date: July 6, 2025, 4:10 a.m.

Reference frame: TEME

Reference center: EARTH

Epoch: July 5, 2025, 10:21 p.m. UTC

TLE line 0: 0 DMSP 5D-2 F13 DEB

TLE line 1: 1 40576U 95015EK 25186.93184355 .00006454 00000-0 16336-2 0 9992

TLE line 2: 2 40576 98.5791 240.0950 0027834 139.7178 220.6085 14.51023485535136

Live tracking on map

Real-time ground track for satellite DMSP 5D-2 F13 DEB.

In-orbit conjunctions

A list of the most updated potential collisions computed for object DMSP 5D-2 F13 DEB.

Target Orbit TCA Probability of collision Miss distance Type
CZ-6A DEB LEO 2024-12-19 02:23:15 0.0003289622 406.0 (m) DEBRIS
PSLV R/B MEO 2024-11-15 03:41:18 0.0001880013 275.0 (m) ROCKET BODY
ASUSAT SSO 2024-11-14 15:30:43 0.0002072104 312.0 (m) PAYLOAD
COSMOS 2251 DEB LEO 2024-09-25 02:42:42 0.0001880397 885.0 (m) DEBRIS
SUNSAT SSO 2024-07-30 11:26:51 0.0001171452 120.0 (m) PAYLOAD

Associated space launch

Military meteorological satellite

DMSP 5D-2 F13 DEB was lifted into orbit during the mission ‘Atlas E | DMSP-5D2 F13’, on board a Atlas E space rocket.

The launch took place on March 24, 1995, 2:05 p.m. from Space Launch Complex 3W.

For more information about the launch, click the button.

Launch to space Atlas E | DMSP-5D2 F13
Atlas E | DMSP-5D2 F13

Agency: N/A

Status: Launch Successful

Launch date: March 24, 1995, 2:05 p.m. UTC

Rocket: Atlas E

Launch pad: Space Launch Complex 3W

Location: Vandenberg SFB, CA, USA

...

Latest news about this satellite

There are no fresh news available about this satellite. Check back as we update our databases every day.


Newsletter sign-up

Weekly statistics, charts and insights to help you stay on top of the space industry.